Time,TemperatureF,DewpointF,PressureIn,WindDirection,WindDirectionDegrees,WindSpeedMPH,WindSpeedGustMPH,Humidity,HourlyPrecipIn,Conditions,Clouds,dailyrainin,SoftwareType,DateUTC
2013-10-16 00:00:00,54.5,53.1,16.03,NW,323,2.0,9.0,95,0.11,,SKC,0.78,VWS V14.01,2013-10-16 05:00:00,
2013-10-16 00:01:00,54.5,53.1,16.03,West,277,2.0,5.0,95,0.09,,SKC,0.85,VWS V14.01,2013-10-16 05:01:00,
2013-10-16 00:07:00,54.3,52.6,16.03,ENE,64,2.0,4.0,94,0.08,,SKC,0.01,VWS V14.01,2013-10-16 05:07:00,
2013-10-16 00:14:00,54.1,52.4,16.03,NE,52,2.0,8.0,94,0.08,,SKC,0.01,VWS V14.01,2013-10-16 05:14:00,
2013-10-16 00:20:00,54.1,52.4,16.03,ENE,69,1.0,8.0,94,0.08,,SKC,0.01,VWS V14.01,2013-10-16 05:20:00,
2013-10-16 00:26:00,54.3,52.6,16.03,NE,36,2.0,8.0,94,0.09,,SKC,0.02,VWS V14.01,2013-10-16 05:26:00,
2013-10-16 00:30:00,54.4,53.0,16.03,North,10,4.0,8.0,95,0.06,,SKC,0.80,VWS V14.01,2013-10-16 05:30:00,
2013-10-16 00:32:00,54.2,52.5,16.03,NNE,18,4.0,11.0,94,0.10,,SKC,0.03,VWS V14.01,2013-10-16 05:32:00,
2013-10-16 00:38:00,54.1,52.4,16.03,NNE,17,3.0,9.0,94,0.08,,SKC,0.03,VWS V14.01,2013-10-16 05:38:00,
2013-10-16 00:44:00,54.0,52.3,16.03,NNE,23,6.0,10.0,94,0.08,,SKC,0.03,VWS V14.01,2013-10-16 05:44:00,
2013-10-16 00:50:00,54.0,52.3,16.03,NE,49,3.0,10.0,94,0.08,,SKC,0.03,VWS V14.01,2013-10-16 05:50:00,
2013-10-16 00:56:00,53.9,52.2,16.03,North,355,5.0,10.0,94,0.08,,SKC,0.03,VWS V14.01,2013-10-16 05:56:00,
2013-10-16 01:00:00,54.5,53.1,16.03,NNW,327,2.0,5.0,95,0.09,,SKC,0.85,VWS V14.01,2013-10-16 06:00:00,
2013-10-16 01:02:00,53.9,52.2,16.03,NNE,32,2.0,10.0,94,0.08,,SKC,0.03,VWS V14.01,2013-10-16 06:02:00,
2013-10-16 01:08:00,53.9,52.2,16.03,NNE,12,6.0,7.0,94,0.03,,SKC,0.03,VWS V14.01,2013-10-16 06:08:00,
2013-10-16 01:14:00,53.8,52.1,16.03,NE,36,3.0,7.0,94,0.03,,SKC,0.03,VWS V14.01,2013-10-16 06:14:00,
2013-10-16 01:20:00,53.9,52.2,16.03,NW,318,1.0,7.0,94,0.03,,SKC,0.03,VWS V14.01,2013-10-16 06:20:00,
2013-10-16 01:26:00,54.0,52.3,16.03,ENE,70,0.0,7.0,94,0.03,,SKC,0.03,VWS V14.01,2013-10-16 06:26:00,
2013-10-16 01:30:00,54.2,52.5,16.03,NE,35,6.0,11.0,94,0.10,,SKC,0.03,VWS V14.01,2013-10-16 06:30:00,
2013-10-16 01:32:00,54.0,52.3,16.03,NE,49,0.0,7.0,94,0.03,,SKC,0.03,VWS V14.01,2013-10-16 06:32:00,
2013-10-16 01:38:00,54.1,52.4,16.03,NNW,341,2.0,3.0,94,0.01,,SKC,0.04,VWS V14.01,2013-10-16 06:38:00,
2013-10-16 01:44:00,54.2,52.5,16.03,NNW,330,1.0,5.0,94,0.01,,SKC,0.04,VWS V14.01,2013-10-16 06:44:00,
2013-10-16 01:50:00,54.2,52.5,16.03,NE,49,2.0,8.0,94,0.02,,SKC,0.05,VWS V14.01,2013-10-16 06:50:00,
2013-10-16 01:56:00,54.2,52.5,16.03,NE,39,4.0,8.0,94,0.02,,SKC,0.05,VWS V14.01,2013-10-16 06:56:00,
2013-10-16 02:00:00,53.9,52.2,16.03,North,5,6.0,10.0,94,0.08,,SKC,0.03,VWS V14.01,2013-10-16 07:00:00,
2013-10-16 02:02:00,54.3,52.6,16.03,NW,316,1.0,8.0,94,0.02,,SKC,0.05,VWS V14.01,2013-10-16 07:02:00,
2013-10-16 02:08:00,54.4,52.7,16.03,ENE,64,7.0,7.0,94,0.02,,SKC,0.05,VWS V14.01,2013-10-16 07:08:00,
2013-10-16 02:14:00,54.4,52.7,16.03,West,281,1.0,8.0,94,0.02,,SKC,0.05,VWS V14.01,2013-10-16 07:14:00,
2013-10-16 02:20:00,54.3,52.6,16.03,ENE,74,2.0,8.0,94,0.02,,SKC,0.05,VWS V14.01,2013-10-16 07:20:00,
2013-10-16 02:26:00,54.3,52.6,16.03,ENE,71,3.0,9.0,94,0.02,,SKC,0.05,VWS V14.01,2013-10-16 07:26:00,
2013-10-16 02:30:00,54.0,52.3,16.03,NE,49,1.0,7.0,94,0.03,,SKC,0.03,VWS V14.01,2013-10-16 07:30:00,
2013-10-16 02:32:00,54.3,52.6,16.03,NE,40,1.0,9.0,94,0.02,,SKC,0.05,VWS V14.01,2013-10-16 07:32:00,
2013-10-16 02:38:00,54.3,52.6,16.03,NW,320,1.0,5.0,94,0.03,,SKC,0.06,VWS V14.01,2013-10-16 07:38:00,
2013-10-16 02:44:00,54.4,52.7,16.03,NE,55,2.0,5.0,94,0.03,,SKC,0.06,VWS V14.01,2013-10-16 07:44:00,
2013-10-16 02:50:00,54.4,52.7,16.03,NNW,327,1.0,5.0,94,0.03,,SKC,0.06,VWS V14.01,2013-10-16 07:50:00,
2013-10-16 02:56:00,54.4,52.7,16.03,NW,324,2.0,5.0,94,0.04,,SKC,0.07,VWS V14.01,2013-10-16 07:56:00,
2013-10-16 03:00:00,54.3,52.6,16.03,NW,316,1.0,8.0,94,0.02,,SKC,0.05,VWS V14.01,2013-10-16 08:00:00,
2013-10-16 03:02:00,54.4,52.7,16.03,WNW,300,4.0,5.0,94,0.06,,SKC,0.09,VWS V14.01,2013-10-16 08:02:00,
2013-10-16 03:08:00,54.4,52.7,16.03,ENE,61,0.0,5.0,94,0.05,,SKC,0.10,VWS V14.01,2013-10-16 08:08:00,
2013-10-16 03:14:00,54.4,52.7,16.03,NNE,25,8.0,8.0,94,0.06,,SKC,0.11,VWS V14.01,2013-10-16 08:14:00,
2013-10-16 03:20:00,54.4,53.0,16.03,NE,38,1.0,8.0,95,0.06,,SKC,0.11,VWS V14.01,2013-10-16 08:20:00,
2013-10-16 03:26:00,54.5,53.1,16.03,ESE,103,2.0,8.0,95,0.08,,SKC,0.13,VWS V14.01,2013-10-16 08:26:00,
2013-10-16 03:30:00,54.3,52.6,16.03,NE,40,1.0,9.0,94,0.02,,SKC,0.05,VWS V14.01,2013-10-16 08:30:00,
2013-10-16 03:32:00,54.5,53.1,16.03,East,82,1.0,8.0,95,0.08,,SKC,0.13,VWS V14.01,2013-10-16 08:32:00,
2013-10-16 03:38:00,54.3,52.6,16.03,ENE,73,3.0,8.0,94,0.09,,SKC,0.14,VWS V14.01,2013-10-16 08:38:00,
2013-10-16 03:44:00,54.1,52.4,16.03,East,86,2.0,8.0,94,0.10,,SKC,0.15,VWS V14.01,2013-10-16 08:44:00,
2013-10-16 03:50:00,54.0,52.6,16.03,NNW,336,6.0,9.0,95,0.12,,SKC,0.17,VWS V14.01,2013-10-16 08:50:00,
2013-10-16 03:56:00,54.0,52.6,16.03,NNE,22,1.0,9.0,95,0.13,,SKC,0.18,VWS V14.01,2013-10-16 08:56:00,
2013-10-16 04:00:00,54.4,52.7,16.03,WNW,300,4.0,5.0,94,0.06,,SKC,0.09,VWS V14.01,2013-10-16 09:00:00,
2013-10-16 04:02:00,53.9,52.5,16.03,NNE,14,0.0,9.0,95,0.13,,SKC,0.18,VWS V14.01,2013-10-16 09:02:00,
2013-10-16 04:08:00,53.9,52.5,16.03,NNE,19,1.0,5.0,95,0.09,,SKC,0.18,VWS V14.01,2013-10-16 09:08:00,
2013-10-16 04:14:00,53.9,52.5,16.03,SE,124,1.0,6.0,95,0.09,,SKC,0.18,VWS V14.01,2013-10-16 09:14:00,
2013-10-16 04:20:00,53.9,52.5,16.03,East,87,2.0,6.0,95,0.10,,SKC,0.19,VWS V14.01,2013-10-16 09:20:00,
2013-10-16 04:26:00,53.8,52.4,16.03,NE,41,4.0,6.0,95,0.10,,SKC,0.19,VWS V14.01,2013-10-16 09:26:00,
2013-10-16 04:30:00,54.5,53.1,16.03,East,82,1.0,8.0,95,0.08,,SKC,0.13,VWS V14.01,2013-10-16 09:30:00,
2013-10-16 04:32:00,53.7,52.3,16.03,NW,323,1.0,6.0,95,0.10,,SKC,0.19,VWS V14.01,2013-10-16 09:32:00,
2013-10-16 04:38:00,53.7,52.3,16.03,ESE,110,2.0,6.0,95,0.06,,SKC,0.19,VWS V14.01,2013-10-16 09:38:00,
2013-10-16 04:44:00,53.8,52.4,16.03,North,350,1.0,6.0,95,0.06,,SKC,0.19,VWS V14.01,2013-10-16 09:44:00,
2013-10-16 04:50:00,53.8,52.4,16.03,NNE,21,1.0,7.0,95,0.06,,SKC,0.19,VWS V14.01,2013-10-16 09:50:00,
2013-10-16 04:56:00,53.8,52.4,16.03,North,360,1.0,7.0,95,0.06,,SKC,0.19,VWS V14.01,2013-10-16 09:56:00,
2013-10-16 05:00:00,53.9,52.5,16.03,NNE,14,0.0,9.0,95,0.13,,SKC,0.18,VWS V14.01,2013-10-16 10:00:00,
2013-10-16 05:02:00,53.8,52.4,16.03,NE,40,3.0,7.0,95,0.06,,SKC,0.19,VWS V14.01,2013-10-16 10:02:00,
2013-10-16 05:08:00,53.9,52.5,16.03,NW,320,0.0,5.0,95,0.01,,SKC,0.19,VWS V14.01,2013-10-16 10:08:00,
2013-10-16 05:14:00,53.9,52.5,16.03,North,5,1.0,5.0,95,0.01,,SKC,0.19,VWS V14.01,2013-10-16 10:14:00,
2013-10-16 05:20:00,53.9,52.5,16.03,NE,36,1.0,5.0,95,0.01,,SKC,0.19,VWS V14.01,2013-10-16 10:20:00,
2013-10-16 05:26:00,53.8,52.4,16.03,NNE,30,1.0,5.0,95,0.01,,SKC,0.19,VWS V14.01,2013-10-16 10:26:00,
2013-10-16 05:30:00,53.7,52.3,16.03,NW,323,1.0,6.0,95,0.10,,SKC,0.19,VWS V14.01,2013-10-16 10:30:00,
2013-10-16 05:32:00,53.8,52.4,16.03,East,85,2.0,6.0,95,0.01,,SKC,0.19,VWS V14.01,2013-10-16 10:32:00,
2013-10-16 05:38:00,53.8,52.4,16.03,West,267,1.0,3.0,95,0.00,,SKC,0.19,VWS V14.01,2013-10-16 10:38:00,
2013-10-16 05:44:00,53.8,52.4,16.03,NNW,334,1.0,6.0,95,0.00,,SKC,0.19,VWS V14.01,2013-10-16 10:44:00,
2013-10-16 05:50:00,53.8,52.4,16.03,NNE,33,1.0,6.0,95,0.00,,SKC,0.19,VWS V14.01,2013-10-16 10:50:00,
2013-10-16 05:56:00,53.8,52.4,16.03,NW,319,1.0,6.0,95,0.00,,SKC,0.19,VWS V14.01,2013-10-16 10:56:00,
2013-10-16 06:00:00,53.8,52.4,16.03,NE,40,3.0,7.0,95,0.06,,SKC,0.19,VWS V14.01,2013-10-16 11:00:00,
2013-10-16 06:02:00,53.8,52.4,16.03,ESE,107,0.0,6.0,95,0.01,,SKC,0.20,VWS V14.01,2013-10-16 11:02:00,
2013-10-16 06:08:00,53.8,52.4,16.03,NNE,30,0.0,4.0,95,0.01,,SKC,0.20,VWS V14.01,2013-10-16 11:08:00,
2013-10-16 06:14:00,53.8,52.4,16.03,NE,53,0.0,4.0,95,0.01,,SKC,0.20,VWS V14.01,2013-10-16 11:14:00,
2013-10-16 06:20:00,53.9,52.5,16.03,North,5,1.0,5.0,95,0.02,,SKC,0.21,VWS V14.01,2013-10-16 11:20:00,
2013-10-16 06:26:00,53.9,52.5,16.03,North,5,1.0,5.0,95,0.02,,SKC,0.21,VWS V14.01,2013-10-16 11:26:00,
2013-10-16 06:30:00,53.8,52.4,16.03,East,85,2.0,6.0,95,0.01,,SKC,0.19,VWS V14.01,2013-10-16 11:30:00,
2013-10-16 06:32:00,53.8,52.4,16.03,East,85,0.0,5.0,95,0.02,,SKC,0.21,VWS V14.01,2013-10-16 11:32:00,
2013-10-16 06:38:00,53.7,52.3,16.03,NW,315,3.0,5.0,95,0.03,,SKC,0.22,VWS V14.01,2013-10-16 11:38:00,
2013-10-16 06:44:00,53.6,52.2,16.03,NE,53,2.0,6.0,95,0.03,,SKC,0.22,VWS V14.01,2013-10-16 11:44:00,
2013-10-16 06:50:00,53.4,52.0,16.03,SE,145,2.0,8.0,95,0.03,,SKC,0.22,VWS V14.01,2013-10-16 11:50:00,
2013-10-16 06:56:00,53.2,51.8,16.03,East,88,8.0,8.0,95,0.03,,SKC,0.22,VWS V14.01,2013-10-16 11:56:00,
2013-10-16 07:00:00,53.8,52.4,16.03,ESE,107,0.0,6.0,95,0.01,,SKC,0.20,VWS V14.01,2013-10-16 12:00:00,
2013-10-16 07:02:00,53.0,51.6,16.03,NW,308,5.0,9.0,95,0.04,,SKC,0.23,VWS V14.01,2013-10-16 12:02:00,
2013-10-16 07:08:00,52.9,51.5,16.03,ENE,74,3.0,10.0,95,0.03,,SKC,0.23,VWS V14.01,2013-10-16 12:08:00,
2013-10-16 07:14:00,52.8,51.4,16.03,ENE,66,8.0,10.0,95,0.04,,SKC,0.24,VWS V14.01,2013-10-16 12:14:00,
2013-10-16 07:21:00,52.8,51.4,16.03,NNE,28,2.0,10.0,95,0.04,,SKC,0.24,VWS V14.01,2013-10-16 12:21:00,
2013-10-16 07:27:00,52.8,51.4,16.03,WNW,299,4.0,10.0,95,0.05,,SKC,0.25,VWS V14.01,2013-10-16 12:27:00,
2013-10-16 07:30:00,53.8,52.4,16.03,East,85,0.0,5.0,95,0.02,,SKC,0.21,VWS V14.01,2013-10-16 12:30:00,
2013-10-16 07:32:00,52.7,51.3,16.03,ENE,61,2.0,10.0,95,0.05,,SKC,0.25,VWS V14.01,2013-10-16 12:32:00,
2013-10-16 07:39:00,52.7,51.3,16.03,North,11,2.0,7.0,95,0.04,,SKC,0.25,VWS V14.01,2013-10-16 12:39:00,
2013-10-16 07:45:00,52.7,51.3,16.03,ENE,70,4.0,9.0,95,0.04,,SKC,0.25,VWS V14.01,2013-10-16 12:45:00,
2013-10-16 07:51:00,52.6,51.2,16.03,NNE,30,4.0,9.0,95,0.04,,SKC,0.25,VWS V14.01,2013-10-16 12:51:00,
2013-10-16 07:57:00,52.7,51.3,16.03,North,5,1.0,9.0,95,0.04,,SKC,0.25,VWS V14.01,2013-10-16 12:57:00,
2013-10-16 08:00:00,53.0,51.6,16.03,NW,308,5.0,9.0,95,0.04,,SKC,0.23,VWS V14.01,2013-10-16 13:00:00,
2013-10-16 08:02:00,52.7,51.3,16.03,ENE,78,1.0,9.0,95,0.05,,SKC,0.26,VWS V14.01,2013-10-16 13:02:00,
2013-10-16 08:09:00,52.7,51.3,16.03,NNE,30,1.0,8.0,95,0.03,,SKC,0.26,VWS V14.01,2013-10-16 13:09:00,
2013-10-16 08:15:00,52.8,51.4,16.03,ENE,63,0.0,8.0,95,0.03,,SKC,0.26,VWS V14.01,2013-10-16 13:15:00,
2013-10-16 08:21:00,52.9,51.5,16.03,WNW,297,1.0,8.0,95,0.04,,SKC,0.27,VWS V14.01,2013-10-16 13:21:00,
2013-10-16 08:27:00,53.0,51.9,16.03,NNE,33,3.0,8.0,96,0.04,,SKC,0.27,VWS V14.01,2013-10-16 13:27:00,
2013-10-16 08:30:00,52.7,51.3,16.03,ENE,61,2.0,10.0,95,0.05,,SKC,0.25,VWS V14.01,2013-10-16 13:30:00,
2013-10-16 08:32:00,53.1,51.7,16.03,NE,49,0.0,8.0,95,0.04,,SKC,0.27,VWS V14.01,2013-10-16 13:32:00,
2013-10-16 08:39:00,53.2,51.8,16.03,ENE,67,1.0,8.0,95,0.02,,SKC,0.27,VWS V14.01,2013-10-16 13:39:00,
2013-10-16 08:45:00,53.3,52.2,16.03,ENE,73,1.0,8.0,96,0.02,,SKC,0.27,VWS V14.01,2013-10-16 13:45:00,
2013-10-16 08:51:00,53.5,52.4,16.03,NW,313,0.0,8.0,96,0.03,,SKC,0.28,VWS V14.01,2013-10-16 13:51:00,
2013-10-16 08:57:00,53.6,52.5,16.03,NE,42,2.0,8.0,96,0.03,,SKC,0.28,VWS V14.01,2013-10-16 13:57:00,
2013-10-16 09:00:00,52.7,51.3,16.03,ENE,78,1.0,9.0,95,0.05,,SKC,0.26,VWS V14.01,2013-10-16 14:00:00,
2013-10-16 09:02:00,53.8,52.7,16.03,NNE,27,3.0,8.0,96,0.03,,SKC,0.28,VWS V14.01,2013-10-16 14:02:00,
2013-10-16 09:09:00,53.9,52.8,16.03,NNE,24,5.0,7.0,96,0.02,,SKC,0.28,VWS V14.01,2013-10-16 14:09:00,
2013-10-16 09:15:00,54.0,52.9,16.03,NW,316,1.0,7.0,96,0.02,,SKC,0.28,VWS V14.01,2013-10-16 14:15:00,
2013-10-16 09:21:00,54.2,53.1,16.03,NW,308,2.0,7.0,96,0.02,,SKC,0.28,VWS V14.01,2013-10-16 14:21:00,
2013-10-16 09:27:00,54.2,53.1,16.03,NNE,27,2.0,7.0,96,0.02,,SKC,0.28,VWS V14.01,2013-10-16 14:27:00,
2013-10-16 09:30:00,53.1,51.7,16.03,NE,49,0.0,8.0,95,0.04,,SKC,0.27,VWS V14.01,2013-10-16 14:30:00,
2013-10-16 09:32:00,54.3,53.2,16.03,NE,51,1.0,7.0,96,0.02,,SKC,0.28,VWS V14.01,2013-10-16 14:32:00,
2013-10-16 09:39:00,54.4,53.3,16.03,NNE,17,0.0,4.0,96,0.02,,SKC,0.29,VWS V14.01,2013-10-16 14:39:00,
2013-10-16 09:45:00,54.6,53.5,16.03,North,351,1.0,4.0,96,0.02,,SKC,0.29,VWS V14.01,2013-10-16 14:45:00,
2013-10-16 09:51:00,54.5,53.1,16.03,ESE,120,0.0,5.0,95,0.02,,SKC,0.29,VWS V14.01,2013-10-16 14:51:00,
2013-10-16 09:57:00,54.0,52.6,16.03,NNW,344,4.0,5.0,95,0.02,,SKC,0.29,VWS V14.01,2013-10-16 14:57:00,
2013-10-16 10:00:00,53.8,52.7,16.03,NNE,27,3.0,8.0,96,0.03,,SKC,0.28,VWS V14.01,2013-10-16 15:00:00,
2013-10-16 10:02:00,53.9,52.8,16.03,NNW,329,3.0,12.0,96,0.02,,SKC,0.29,VWS V14.01,2013-10-16 15:02:00,
2013-10-16 10:09:00,53.7,52.3,16.03,SE,134,5.0,7.0,95,0.01,,SKC,0.29,VWS V14.01,2013-10-16 15:09:00,
2013-10-16 10:15:00,53.6,52.5,16.03,NE,34,4.0,7.0,96,0.01,,SKC,0.29,VWS V14.01,2013-10-16 15:15:00,
2013-10-16 10:21:00,53.6,52.5,16.03,ENE,76,2.0,8.0,96,0.01,,SKC,0.29,VWS V14.01,2013-10-16 15:21:00,
2013-10-16 10:27:00,53.6,52.2,16.03,NNE,14,2.0,10.0,95,0.01,,SKC,0.29,VWS V14.01,2013-10-16 15:27:00,
2013-10-16 10:30:00,54.3,53.2,16.03,NE,51,1.0,7.0,96,0.02,,SKC,0.28,VWS V14.01,2013-10-16 15:30:00,
2013-10-16 10:32:00,53.6,52.5,16.03,NNE,17,4.0,10.0,96,0.01,,SKC,0.29,VWS V14.01,2013-10-16 15:32:00,
2013-10-16 10:39:00,53.7,52.6,16.03,NNE,30,3.0,8.0,96,0.01,,SKC,0.29,VWS V14.01,2013-10-16 15:39:00,
2013-10-16 10:45:00,53.8,52.4,16.03,NE,50,4.0,8.0,95,0.01,,SKC,0.29,VWS V14.01,2013-10-16 15:45:00,
2013-10-16 10:51:00,53.7,52.3,16.03,NNE,30,4.0,8.0,95,0.01,,SKC,0.29,VWS V14.01,2013-10-16 15:51:00,
2013-10-16 10:57:00,53.4,52.0,16.03,East,79,1.0,10.0,95,0.01,,SKC,0.29,VWS V14.01,2013-10-16 15:57:00,
2013-10-16 11:00:00,53.9,52.8,16.03,NNW,329,3.0,12.0,96,0.02,,SKC,0.29,VWS V14.01,2013-10-16 16:00:00,
2013-10-16 11:03:00,53.2,51.8,16.03,NW,314,1.0,4.0,95,0.00,,SKC,0.29,VWS V14.01,2013-10-16 16:03:00,
2013-10-16 11:09:00,53.2,51.8,16.03,North,11,4.0,8.0,95,0.00,,SKC,0.29,VWS V14.01,2013-10-16 16:09:00,
2013-10-16 11:15:00,53.6,52.5,16.03,NW,323,2.0,8.0,96,0.00,,SKC,0.29,VWS V14.01,2013-10-16 16:15:00,
2013-10-16 11:21:00,53.9,52.8,16.03,NNE,23,3.0,8.0,96,0.00,,SKC,0.29,VWS V14.01,2013-10-16 16:21:00,
2013-10-16 11:27:00,54.1,52.7,16.03,North,351,1.0,8.0,95,0.00,,SKC,0.29,VWS V14.01,2013-10-16 16:27:00,
2013-10-16 11:30:00,53.6,52.5,16.03,NNE,17,4.0,10.0,96,0.01,,SKC,0.29,VWS V14.01,2013-10-16 16:30:00,
2013-10-16 11:33:00,54.1,52.7,16.03,East,89,6.0,6.0,95,0.00,,SKC,0.29,VWS V14.01,2013-10-16 16:33:00,
2013-10-16 11:39:00,54.1,52.7,16.03,NW,309,2.0,6.0,95,0.00,,SKC,0.29,VWS V14.01,2013-10-16 16:39:00,
2013-10-16 11:45:00,54.1,52.4,16.03,East,94,1.0,6.0,94,0.00,,SKC,0.29,VWS V14.01,2013-10-16 16:45:00,
2013-10-16 11:51:00,54.0,52.3,16.03,NNW,333,2.0,9.0,94,0.00,,SKC,0.29,VWS V14.01,2013-10-16 16:51:00,
2013-10-16 11:57:00,54.3,52.6,16.03,NNE,30,3.0,9.0,94,0.00,,SKC,0.29,VWS V14.01,2013-10-16 16:57:00,
2013-10-16 12:00:00,53.2,51.8,16.03,ENE,69,4.0,10.0,95,0.01,,SKC,0.29,VWS V14.01,2013-10-16 17:00:00,
2013-10-16 12:03:00,54.6,52.9,16.03,North,350,1.0,3.0,94,0.00,,SKC,0.29,VWS V14.01,2013-10-16 17:03:00,
2013-10-16 12:09:00,54.4,52.4,16.03,NW,321,2.0,5.0,93,0.00,,SKC,0.29,VWS V14.01,2013-10-16 17:09:00,
2013-10-16 12:15:00,54.3,52.3,16.03,NNW,336,1.0,7.0,93,0.00,,SKC,0.29,VWS V14.01,2013-10-16 17:15:00,
2013-10-16 12:21:00,54.4,52.7,16.03,NNW,328,0.0,8.0,94,0.00,,SKC,0.29,VWS V14.01,2013-10-16 17:21:00,
2013-10-16 12:27:00,54.4,52.4,16.03,NNW,346,2.0,8.0,93,0.01,,SKC,0.30,VWS V14.01,2013-10-16 17:27:00,
2013-10-16 12:30:00,54.1,52.7,16.03,NE,53,5.0,8.0,95,0.00,,SKC,0.29,VWS V14.01,2013-10-16 17:30:00,
2013-10-16 12:33:00,54.2,52.5,16.03,NNE,19,2.0,3.0,94,0.01,,SKC,0.30,VWS V14.01,2013-10-16 17:33:00,
2013-10-16 12:39:00,54.3,52.6,16.03,ENE,63,0.0,6.0,94,0.01,,SKC,0.30,VWS V14.01,2013-10-16 17:39:00,
2013-10-16 12:45:00,54.6,52.9,16.03,ENE,61,2.0,6.0,94,0.01,,SKC,0.30,VWS V14.01,2013-10-16 17:45:00,
2013-10-16 12:51:00,54.7,53.0,16.03,North,5,1.0,6.0,94,0.01,,SKC,0.30,VWS V14.01,2013-10-16 17:51:00,
2013-10-16 12:57:00,54.9,53.2,16.03,NE,45,1.0,6.0,94,0.01,,SKC,0.30,VWS V14.01,2013-10-16 17:57:00,
2013-10-16 13:00:00,54.5,52.8,16.03,NW,315,3.0,9.0,94,0.00,,SKC,0.29,VWS V14.01,2013-10-16 18:00:00,
2013-10-16 13:03:00,55.3,53.6,16.03,NE,40,0.0,1.0,94,0.01,,SKC,0.30,VWS V14.01,2013-10-16 18:03:00,
2013-10-16 13:09:00,55.3,53.6,16.03,NW,317,0.0,4.0,94,0.01,,SKC,0.30,VWS V14.01,2013-10-16 18:09:00,
2013-10-16 13:15:00,55.5,53.8,16.03,NNW,328,3.0,4.0,94,0.01,,SKC,0.30,VWS V14.01,2013-10-16 18:15:00,
2013-10-16 13:21:00,55.7,54.3,16.03,NE,37,0.0,5.0,95,0.01,,SKC,0.30,VWS V14.01,2013-10-16 18:21:00,
2013-10-16 13:27:00,55.6,53.9,16.03,NE,50,2.0,5.0,94,0.02,,SKC,0.31,VWS V14.01,2013-10-16 18:27:00,
2013-10-16 13:30:00,54.2,52.2,16.03,NE,46,2.0,8.0,93,0.01,,SKC,0.30,VWS V14.01,2013-10-16 18:30:00,
2013-10-16 13:33:00,55.6,53.9,16.03,ENE,77,0.0,3.0,94,0.01,,SKC,0.31,VWS V14.01,2013-10-16 18:33:00,
2013-10-16 13:36:00,55.5,53.8,16.03,ENE,63,1.0,3.0,94,0.01,,SKC,0.31,VWS V14.01,2013-10-16 18:36:00,
2013-10-16 13:42:00,55.7,54.3,16.03,NE,54,0.0,5.0,95,0.01,,SKC,0.31,VWS V14.01,2013-10-16 18:42:00,
2013-10-16 13:48:00,56.0,54.6,16.03,NNE,17,1.0,5.0,95,0.01,,SKC,0.31,VWS V14.01,2013-10-16 18:48:00,
2013-10-16 13:54:00,56.2,54.5,16.03,NNW,327,1.0,5.0,94,0.02,,SKC,0.32,VWS V14.01,2013-10-16 18:54:00,
2013-10-16 14:00:00,56.3,54.9,16.03,NW,319,1.0,5.0,95,0.02,,SKC,0.32,VWS V14.01,2013-10-16 19:00:00,
2013-10-16 14:06:00,56.2,54.5,16.03,ENE,61,4.0,4.0,94,0.02,,SKC,0.32,VWS V14.01,2013-10-16 19:06:00,
2013-10-16 14:12:00,56.4,54.7,16.03,North,349,0.0,4.0,94,0.02,,SKC,0.32,VWS V14.01,2013-10-16 19:12:00,
2013-10-16 14:18:00,56.4,54.7,16.03,NE,44,1.0,4.0,94,0.02,,SKC,0.32,VWS V14.01,2013-10-16 19:18:00,
2013-10-16 14:24:00,56.6,54.9,16.03,NNW,348,1.0,4.0,94,0.02,,SKC,0.32,VWS V14.01,2013-10-16 19:24:00,
2013-10-16 14:30:00,56.3,54.3,16.03,WNW,289,0.0,5.0,93,0.02,,SKC,0.32,VWS V14.01,2013-10-16 19:30:00,
2013-10-16 14:36:00,56.5,54.5,16.03,NE,38,0.0,4.0,93,0.01,,SKC,0.32,VWS V14.01,2013-10-16 19:36:00,
2013-10-16 14:42:00,56.6,54.6,16.03,NE,42,1.0,5.0,93,0.01,,SKC,0.32,VWS V14.01,2013-10-16 19:42:00,
2013-10-16 14:48:00,57.2,55.2,16.03,NNE,32,0.0,5.0,93,0.01,,SKC,0.32,VWS V14.01,2013-10-16 19:48:00,
2013-10-16 14:54:00,56.9,54.6,16.03,NE,46,0.0,5.0,92,0.01,,SKC,0.32,VWS V14.01,2013-10-16 19:54:00,
2013-10-16 15:00:00,57.2,54.9,16.03,NNE,32,0.0,5.0,92,0.01,,SKC,0.32,VWS V14.01,2013-10-16 20:00:00,
2013-10-16 15:06:00,57.6,55.0,16.03,NNE,32,1.0,3.0,91,0.00,,SKC,0.32,VWS V14.01,2013-10-16 20:06:00,
2013-10-16 15:12:00,58.0,55.4,16.03,NNE,32,0.0,3.0,91,0.00,,SKC,0.32,VWS V14.01,2013-10-16 20:12:00,
2013-10-16 15:19:00,58.3,55.7,16.03,NNE,32,0.0,3.0,91,0.00,,SKC,0.32,VWS V14.01,2013-10-16 20:19:00,
2013-10-16 15:25:00,58.5,55.9,16.03,NNE,27,0.0,3.0,91,0.00,,SKC,0.32,VWS V14.01,2013-10-16 20:25:00,
2013-10-16 15:30:00,56.3,54.3,16.03,NNE,24,2.0,5.0,93,0.02,,SKC,0.32,VWS V14.01,2013-10-16 20:30:00,
2013-10-16 15:31:00,58.9,56.0,16.03,NNE,26,0.0,3.0,90,0.00,,SKC,0.32,VWS V14.01,2013-10-16 20:31:00,
2013-10-16 15:37:00,58.9,55.4,16.03,NNE,22,0.0,3.0,88,0.00,,SKC,0.32,VWS V14.01,2013-10-16 20:37:00,
2013-10-16 15:43:00,59.1,55.5,16.03,NNE,22,0.0,3.0,88,0.01,,SKC,0.33,VWS V14.01,2013-10-16 20:43:00,
2013-10-16 15:49:00,59.4,55.2,16.03,NW,320,0.0,4.0,86,0.01,,SKC,0.33,VWS V14.01,2013-10-16 20:49:00,
2013-10-16 15:55:00,59.7,55.2,16.03,WNW,293,0.0,4.0,85,0.01,,SKC,0.33,VWS V14.01,2013-10-16 20:55:00,
2013-10-16 16:00:00,57.4,55.1,16.03,NNE,32,0.0,5.0,92,0.01,,SKC,0.32,VWS V14.01,2013-10-16 21:00:00,
2013-10-16 16:01:00,60.1,55.3,16.03,NW,316,0.0,4.0,84,0.01,,SKC,0.33,VWS V14.01,2013-10-16 21:01:00,
2013-10-16 16:07:00,60.4,54.9,16.03,ENE,59,0.0,5.0,82,0.01,,SKC,0.33,VWS V14.01,2013-10-16 21:07:00,
2013-10-16 16:13:00,60.5,54.0,16.03,NW,319,0.0,5.0,79,0.01,,SKC,0.33,VWS V14.01,2013-10-16 21:13:00,
2013-10-16 16:19:00,60.7,53.8,16.03,NNW,327,1.0,5.0,78,0.01,,SKC,0.33,VWS V14.01,2013-10-16 21:19:00,
2013-10-16 16:25:00,61.3,55.1,16.03,NE,46,0.0,5.0,80,0.01,,SKC,0.33,VWS V14.01,2013-10-16 21:25:00,
2013-10-16 16:30:00,58.9,56.0,16.03,NNE,26,1.0,3.0,90,0.00,,SKC,0.32,VWS V14.01,2013-10-16 21:30:00,
2013-10-16 16:31:00,61.8,54.5,16.03,NE,49,0.0,5.0,77,0.01,,SKC,0.33,VWS V14.01,2013-10-16 21:31:00,
2013-10-16 16:37:00,62.0,54.4,16.03,NNE,16,0.0,2.0,76,0.01,,SKC,0.33,VWS V14.01,2013-10-16 21:37:00,
2013-10-16 16:43:00,62.4,54.8,16.03,NNE,15,1.0,2.0,76,0.01,,SKC,0.33,VWS V14.01,2013-10-16 21:43:00,
2013-10-16 16:49:00,62.5,54.8,16.03,NE,34,0.0,5.0,76,0.01,,SKC,0.33,VWS V14.01,2013-10-16 21:49:00,
2013-10-16 16:55:00,62.6,53.5,16.03,NNW,339,1.0,5.0,72,0.01,,SKC,0.33,VWS V14.01,2013-10-16 21:55:00,
2013-10-16 17:00:00,60.2,55.3,16.03,NW,316,0.0,4.0,84,0.01,,SKC,0.33,VWS V14.01,2013-10-16 22:00:00,
2013-10-16 17:01:00,63.4,53.8,16.03,NNW,346,1.0,5.0,71,0.01,,SKC,0.33,VWS V14.01,2013-10-16 22:01:00,
2013-10-16 17:07:00,64.2,53.8,16.03,NW,310,4.0,4.0,69,0.00,,SKC,0.33,VWS V14.01,2013-10-16 22:07:00,
2013-10-16 17:13:00,64.5,54.1,16.03,ESE,114,1.0,4.0,69,0.00,,SKC,0.33,VWS V14.01,2013-10-16 22:13:00,
2013-10-16 17:19:00,64.2,53.0,16.03,NE,50,1.0,4.0,67,0.00,,SKC,0.33,VWS V14.01,2013-10-16 22:19:00,
2013-10-16 17:25:00,63.8,52.7,16.03,North,5,0.0,4.0,67,0.00,,SKC,0.33,VWS V14.01,2013-10-16 22:25:00,
2013-10-16 17:30:00,61.8,54.5,16.03,NE,44,0.0,5.0,77,0.01,,SKC,0.33,VWS V14.01,2013-10-16 22:30:00,
2013-10-16 17:31:00,63.7,53.3,16.03,NW,325,3.0,4.0,69,0.00,,SKC,0.33,VWS V14.01,2013-10-16 22:31:00,
2013-10-16 17:37:00,63.5,52.8,16.03,WNW,292,1.0,3.0,68,0.00,,SKC,0.33,VWS V14.01,2013-10-16 22:37:00,
2013-10-16 17:43:00,63.3,53.0,16.03,WNW,292,0.0,3.0,69,0.00,,SKC,0.33,VWS V14.01,2013-10-16 22:43:00,
2013-10-16 17:49:00,63.1,52.8,16.03,WNW,292,1.0,3.0,69,0.00,,SKC,0.33,VWS V14.01,2013-10-16 22:49:00,
2013-10-16 17:55:00,63.0,52.7,16.03,NW,325,0.0,3.0,69,0.00,,SKC,0.33,VWS V14.01,2013-10-16 22:55:00,
2013-10-16 18:00:00,63.6,53.7,16.03,NNW,344,0.0,5.0,70,0.01,,SKC,0.33,VWS V14.01,2013-10-16 23:00:00,
2013-10-16 18:01:00,62.9,53.0,16.03,NW,323,0.0,3.0,70,0.00,,SKC,0.33,VWS V14.01,2013-10-16 23:01:00,
2013-10-16 18:07:00,62.9,53.0,16.03,NW,323,0.0,1.0,70,0.00,,SKC,0.33,VWS V14.01,2013-10-16 23:07:00,
2013-10-16 18:13:00,62.7,52.8,16.03,NW,323,0.0,1.0,70,0.00,,SKC,0.33,VWS V14.01,2013-10-16 23:13:00,
2013-10-16 18:19:00,62.6,52.7,16.03,NNW,347,0.0,4.0,70,0.00,,SKC,0.33,VWS V14.01,2013-10-16 23:19:00,
2013-10-16 18:25:00,62.4,52.5,16.03,North,9,1.0,4.0,70,0.00,,SKC,0.33,VWS V14.01,2013-10-16 23:25:00,
2013-10-16 18:30:00,63.7,53.0,16.03,NNW,338,0.0,4.0,68,0.00,,SKC,0.33,VWS V14.01,2013-10-16 23:30:00,
2013-10-16 18:31:00,62.3,52.0,16.03,North,355,0.0,4.0,69,0.00,,SKC,0.33,VWS V14.01,2013-10-16 23:31:00,
2013-10-16 18:37:00,62.1,51.8,16.03,North,355,0.0,1.0,69,0.00,,SKC,0.33,VWS V14.01,2013-10-16 23:37:00,
2013-10-16 18:43:00,62.0,52.1,16.03,North,355,0.0,1.0,70,0.00,,SKC,0.33,VWS V14.01,2013-10-16 23:43:00,
2013-10-16 18:49:00,61.9,52.0,16.03,North,355,0.0,1.0,70,0.00,,SKC,0.33,VWS V14.01,2013-10-16 23:49:00,
2013-10-16 18:55:00,61.7,52.2,16.03,North,355,0.0,1.0,71,0.00,,SKC,0.33,VWS V14.01,2013-10-16 23:55:00,
2013-10-16 19:00:00,62.9,53.0,16.03,NW,323,1.0,3.0,70,0.00,,SKC,0.33,VWS V14.01,2013-10-17 00:00:00,
2013-10-16 19:01:00,61.6,51.7,16.03,North,355,0.0,1.0,70,0.00,,SKC,0.33,VWS V14.01,2013-10-17 00:01:00,
2013-10-16 19:07:00,61.4,51.5,16.03,North,355,0.0,1.0,70,0.00,,SKC,0.33,VWS V14.01,2013-10-17 00:07:00,
2013-10-16 19:13:00,61.3,51.8,16.03,North,355,0.0,1.0,71,0.00,,SKC,0.33,VWS V14.01,2013-10-17 00:13:00,
2013-10-16 19:19:00,61.2,52.1,16.03,North,355,0.0,1.0,72,0.00,,SKC,0.33,VWS V14.01,2013-10-17 00:19:00,
2013-10-16 19:25:00,61.0,51.9,16.03,North,355,0.0,1.0,72,0.00,,SKC,0.33,VWS V14.01,2013-10-17 00:25:00,
2013-10-16 19:30:00,62.2,51.9,16.03,North,355,0.0,4.0,69,0.00,,SKC,0.33,VWS V14.01,2013-10-17 00:30:00,
2013-10-16 19:31:00,60.9,52.9,16.03,North,355,0.0,1.0,75,0.00,,SKC,0.33,VWS V14.01,2013-10-17 00:31:00,
2013-10-16 19:37:00,60.5,54.0,16.03,North,355,0.0,0.0,79,0.00,,SKC,0.33,VWS V14.01,2013-10-17 00:37:00,
2013-10-16 19:43:00,59.6,53.4,16.03,North,355,0.0,0.0,80,0.00,,SKC,0.33,VWS V14.01,2013-10-17 00:43:00,
2013-10-16 19:49:00,59.0,53.5,16.03,North,355,0.0,0.0,82,0.00,,SKC,0.33,VWS V14.01,2013-10-17 00:49:00,
2013-10-16 19:55:00,58.6,53.5,16.03,North,355,0.0,0.0,83,0.00,,SKC,0.33,VWS V14.01,2013-10-17 00:55:00,
2013-10-16 20:00:00,61.6,52.1,16.03,North,355,0.0,1.0,71,0.00,,SKC,0.33,VWS V14.01,2013-10-17 01:00:00,
2013-10-16 20:01:00,58.3,53.5,16.03,North,355,0.0,0.0,84,0.00,,SKC,0.33,VWS V14.01,2013-10-17 01:01:00,
2013-10-16 20:07:00,57.9,52.8,16.03,North,355,0.0,0.0,83,0.00,,SKC,0.33,VWS V14.01,2013-10-17 01:07:00,
2013-10-16 20:13:00,58.0,53.5,16.03,North,355,0.0,0.0,85,0.00,,SKC,0.33,VWS V14.01,2013-10-17 01:13:00,
2013-10-16 20:19:00,58.0,53.8,16.03,North,355,0.0,0.0,86,0.00,,SKC,0.33,VWS V14.01,2013-10-17 01:19:00,
2013-10-16 20:25:00,57.8,54.0,16.03,North,355,0.0,0.0,87,0.00,,SKC,0.33,VWS V14.01,2013-10-17 01:25:00,
2013-10-16 20:30:00,60.9,53.7,16.03,North,355,0.0,1.0,77,0.00,,SKC,0.33,VWS V14.01,2013-10-17 01:30:00,
2013-10-16 20:31:00,57.7,53.9,16.03,North,355,0.0,0.0,87,0.00,,SKC,0.33,VWS V14.01,2013-10-17 01:31:00,
2013-10-16 20:37:00,57.7,54.2,16.03,North,355,0.0,0.0,88,0.00,,SKC,0.33,VWS V14.01,2013-10-17 01:37:00,
2013-10-16 20:43:00,57.8,54.3,16.03,North,355,0.0,0.0,88,0.00,,SKC,0.33,VWS V14.01,2013-10-17 01:43:00,
2013-10-16 20:49:00,57.8,54.3,16.03,North,355,0.0,0.0,88,0.00,,SKC,0.33,VWS V14.01,2013-10-17 01:49:00,
2013-10-16 20:55:00,57.8,54.6,16.03,North,355,0.0,0.0,89,0.00,,SKC,0.33,VWS V14.01,2013-10-17 01:55:00,
2013-10-16 21:00:00,58.2,53.4,16.03,North,355,0.0,0.0,84,0.00,,SKC,0.33,VWS V14.01,2013-10-17 02:00:00,
2013-10-16 21:01:00,57.8,54.6,16.03,North,355,0.0,0.0,89,0.00,,SKC,0.33,VWS V14.01,2013-10-17 02:01:00,
2013-10-16 21:07:00,57.8,54.6,16.03,North,355,0.0,0.0,89,0.00,,SKC,0.33,VWS V14.01,2013-10-17 02:07:00,
2013-10-16 21:13:00,57.8,54.9,16.03,North,355,0.0,0.0,90,0.00,,SKC,0.33,VWS V14.01,2013-10-17 02:13:00,
2013-10-16 21:19:00,57.7,54.8,16.03,North,355,0.0,0.0,90,0.00,,SKC,0.33,VWS V14.01,2013-10-17 02:19:00,
2013-10-16 21:25:00,57.6,54.7,16.03,North,355,0.0,0.0,90,0.00,,SKC,0.33,VWS V14.01,2013-10-17 02:25:00,
2013-10-16 21:30:00,57.7,53.9,16.03,North,355,0.0,0.0,87,0.00,,SKC,0.33,VWS V14.01,2013-10-17 02:30:00,
2013-10-16 21:31:00,57.7,54.8,16.03,North,355,0.0,0.0,90,0.00,,SKC,0.33,VWS V14.01,2013-10-17 02:31:00,
2013-10-16 21:37:00,57.8,54.9,16.03,North,355,0.0,0.0,90,0.00,,SKC,0.33,VWS V14.01,2013-10-17 02:37:00,
2013-10-16 21:43:00,58.0,55.4,16.03,North,355,0.0,0.0,91,0.00,,SKC,0.33,VWS V14.01,2013-10-17 02:43:00,
2013-10-16 21:50:00,58.1,55.2,16.03,North,355,0.0,0.0,90,0.00,,SKC,0.33,VWS V14.01,2013-10-17 02:50:00,
2013-10-16 21:56:00,57.9,55.0,16.03,North,355,0.0,0.0,90,0.00,,SKC,0.33,VWS V14.01,2013-10-17 02:56:00,
2013-10-16 22:00:00,57.8,54.6,16.03,North,355,0.0,0.0,89,0.00,,SKC,0.33,VWS V14.01,2013-10-17 03:00:00,
2013-10-16 22:02:00,57.8,55.2,16.03,North,355,0.0,0.0,91,0.00,,SKC,0.33,VWS V14.01,2013-10-17 03:02:00,
2013-10-16 22:08:00,57.7,55.1,16.03,North,355,0.0,0.0,91,0.00,,SKC,0.33,VWS V14.01,2013-10-17 03:08:00,
2013-10-16 22:14:00,57.7,55.1,16.03,North,355,0.0,0.0,91,0.00,,SKC,0.33,VWS V14.01,2013-10-17 03:14:00,
2013-10-16 22:20:00,57.7,55.1,16.03,North,355,0.0,0.0,91,0.00,,SKC,0.33,VWS V14.01,2013-10-17 03:20:00,
2013-10-16 22:26:00,57.7,55.1,16.03,North,355,0.0,0.0,91,0.00,,SKC,0.33,VWS V14.01,2013-10-17 03:26:00,
2013-10-16 22:30:00,57.7,54.8,16.03,North,355,0.0,0.0,90,0.00,,SKC,0.33,VWS V14.01,2013-10-17 03:30:00,
2013-10-16 22:32:00,57.3,54.7,16.03,North,355,0.0,0.0,91,0.00,,SKC,0.33,VWS V14.01,2013-10-17 03:32:00,
2013-10-16 22:38:00,57.3,54.4,16.03,North,355,0.0,1.0,90,0.00,,SKC,0.33,VWS V14.01,2013-10-17 03:38:00,
2013-10-16 22:44:00,57.6,54.4,16.03,North,355,0.0,2.0,89,0.00,,SKC,0.33,VWS V14.01,2013-10-17 03:44:00,
2013-10-16 22:50:00,58.1,53.9,16.03,North,355,0.0,2.0,86,0.00,,SKC,0.33,VWS V14.01,2013-10-17 03:50:00,
2013-10-16 22:56:00,58.4,53.9,16.03,North,355,0.0,2.0,85,0.00,,SKC,0.33,VWS V14.01,2013-10-17 03:56:00,
2013-10-16 23:00:00,57.8,55.2,16.03,North,355,0.0,0.0,91,0.00,,SKC,0.33,VWS V14.01,2013-10-17 04:00:00,
2013-10-16 23:02:00,58.6,53.1,16.03,North,355,0.0,2.0,82,0.00,,SKC,0.33,VWS V14.01,2013-10-17 04:02:00,
2013-10-16 23:05:00,58.7,52.9,16.03,North,355,0.0,1.0,81,0.00,,SKC,0.33,VWS V14.01,2013-10-17 04:05:00,
2013-10-16 23:11:00,58.9,52.8,16.03,North,355,0.0,2.0,80,0.00,,SKC,0.33,VWS V14.01,2013-10-17 04:11:00,
2013-10-16 23:17:00,59.1,52.3,16.03,NW,313,1.0,3.0,78,0.00,,SKC,0.33,VWS V14.01,2013-10-17 04:17:00,
2013-10-16 23:23:00,59.1,52.3,16.03,NW,325,0.0,3.0,78,0.00,,SKC,0.33,VWS V14.01,2013-10-17 04:23:00,
2013-10-16 23:26:00,59.2,52.0,16.03,NW,325,0.0,3.0,77,0.00,,SKC,0.33,VWS V14.01,2013-10-17 04:26:00,
2013-10-16 23:30:00,57.3,54.7,16.03,North,355,0.0,0.0,91,0.00,,SKC,0.33,VWS V14.01,2013-10-17 04:30:00,
2013-10-16 23:32:00,59.1,51.9,16.03,NNW,337,0.0,3.0,77,0.00,,SKC,0.33,VWS V14.01,2013-10-17 04:32:00,
2013-10-16 23:38:00,59.0,51.5,16.03,NNE,19,1.0,3.0,76,0.00,,SKC,0.33,VWS V14.01,2013-10-17 04:38:00,
2013-10-16 23:44:00,58.9,51.0,16.03,NNE,17,1.0,3.0,75,0.00,,SKC,0.33,VWS V14.01,2013-10-17 04:44:00,
2013-10-16 23:50:00,58.9,51.4,16.03,North,355,0.0,3.0,76,0.00,,SKC,0.33,VWS V14.01,2013-10-17 04:50:00,
2013-10-16 23:56:00,58.8,51.3,16.03,SE,142,0.0,3.0,76,0.00,,SKC,0.33,VWS V14.01,2013-10-17 04:56:00,